Flag for Switzerland Past Weather in Affoltern am Albis, Zurich, Switzerland — Yesterday and Last 2 Weeks

Now
65 °F

Mild.


Feels Like: 65 °F
Forecast: 60 / 74 °F
Wind: 1 mph from Southwest

Location: Zuerich-Fluntern

Current Time: Jul 25, 2016 at 8:13:49 AM

Latest Report: Jul 25, 2016 at 7:00 AM


Visibility: N/A

Pressure: 30.10 "Hg

Humidity: 91%

Dew Point: 62 °F

Location of Affoltern am AlbisLocation

Past Weather in Affoltern am Albis — Graph

°F

Affoltern am Albis Temperature Yesterday

Maximum temperature yesterday: 77 °F (at 3:00 PM)
Minimum temperature yesterday: 63 °F (at 5:00 AM)
Average temperature yesterday: 70 °F

High & Low Weather Summary for the Past Weeks

 TemperatureHumidityPressure
High88 °F (Jul 20, 5:00 PM)100% (Jul 11, 11:00 AM)30.37 "Hg (Jul 11, 11:00 AM)
Low47 °F (Jul 16, 5:00 AM)32% (Jul 20, 7:00 PM)29.82 "Hg (Jul 10, 7:00 PM)
Average66 °F75%30.07 "Hg
* Reported Jul 10 6:00 AM — Jul 25 6:00 AM, Affoltern am Albis, Weather by CustomWeather, © 2016

Note: Actual official high and low records may vary slightly from our data, if they occured in-between our weather recording intervals... More about our weather records

Advertising

Affoltern am Albis Weather History for the Previous 24 Hours

Scroll right to see more
 ConditionsComfort  
Time TempWeatherWind HumidityBarometerVisibility
6:00 AM
Mon, Jul 25
64 °FMild.1 mph94%30.11 "HgN/A
5:00 AM64 °FMild.No wind92%30.10 "HgN/A
4:00 AM64 °FMild.1 mph92%30.11 "HgN/A
3:00 AM64 °FMild.1 mph91%30.11 "HgN/A
2:00 AM65 °FMild.1 mph89%30.11 "HgN/A
1:00 AM66 °FMild.2 mph87%30.11 "HgN/A
12:00 AM66 °FMild.2 mph88%30.12 "HgN/A
11:00 PM
Sun, Jul 24
67 °FMild.2 mph85%30.11 "HgN/A
10:00 PM70 °FMild.2 mph73%30.08 "HgN/A
9:00 PM72 °FMild.5 mph66%30.05 "HgN/A
8:00 PM75 °FScattered clouds.5 mph62%30.03 "HgN/A
7:00 PM75 °FMild.5 mph59%30.01 "HgN/A
6:00 PM77 °FWarm.2 mph53%30.00 "HgN/A
5:00 PM75 °FMild.2 mph58%30.02 "HgN/A
4:00 PM76 °FMild.2 mph54%30.03 "HgN/A
3:00 PM77 °FWarm.3 mph55%30.03 "HgN/A
2:00 PM75 °FPartly sunny.1 mph62%30.05 "HgN/A
1:00 PM75 °FMild.2 mph62%30.05 "HgN/A
12:00 PM71 °FMild.3 mph70%30.06 "HgN/A
11:00 AM71 °FMild.2 mph69%30.07 "HgN/A
10:00 AM68 °FMild.2 mph75%30.09 "HgN/A
9:00 AM65 °FMild.2 mph86%30.10 "HgN/A
8:00 AM64 °FMild.3 mph92%30.10 "HgN/A
Weather by CustomWeather, © 2016

See weather overviewHow to use our weather pages